Abilene, TX

2:00 AM CDT on June 25, 2017 (GMT -0500)
Abilene Regional

Weather History for KABI - December, 2011

Change the Weather History Date:

Friday, December 30, 2011

  Actual Average Record
Temperature  
Mean Temperature 54 °F 44 °F  
Max Temperature 67 °F 56 °F 82 °F (1951)
Min Temperature 40 °F 33 °F 10 °F (1983)
Degree Days  
Heating Degree Days 11 21  
Month to date heating degree days 634 591  
Since 1 July heating degree days 1021 1024  
Cooling Degree Days 0 0  
Month to date cooling degree days 0 0  
Year to date cooling degree days 3517 2408  
Growing Degree Days 4 (Base 50)    
Moisture  
Dew Point 29 °F    
Average Humidity 44    
Maximum Humidity 73    
Minimum Humidity 15    
Precipitation  
Precipitation 0.00 in 0.03 in 1.90 in (1896)
Month to date precipitation 1.93 1.19  
Year to date precipitation 16.83 24.78  
Sea Level Pressure  
Sea Level Pressure 30.03 in    
Wind  
Wind Speed 6 mph (NE)    
Max Wind Speed 17 mph    
Max Gust Speed 23 mph    
Visibility 10 miles    
Events      
T = Trace of Precipitation, MM = Missing Value Source: NWS Daily Summary

Daily Weather History Graph

Daily Weather History Graph

Search for Another Location

Airport or City:

Trip Planner

Search our weather history database for the weather conditions in past years. The results will help you decide how hot, cold, wet, or windy it might be!

Date:

Astronomy

Dec. 30, 2011 Rise Set
Actual Time 7:39 AM CST 5:42 PM CST
Civil Twilight 7:12 AM CST 6:09 PM CST
Nautical Twilight 6:41 AM CST 6:40 PM CST
Astronomical Twilight 6:12 AM CST 7:10 PM CST
Moon 11:21 AM CST (12/30) 11:55 PM CST (12/30)
Length of Visible Light 10h 57m
Length of Day
10h 03m
Waxing Crescent, 36% of the Moon is Illuminated
Dec 30
Waxing Crescent
Jan 1
First Quarter
Jan 9
Full
Jan 16
Last Quarter
Jan 23
New

Hourly Weather History & Observations

Time (CST) Temp. Windchill Dew Point Humidity Pressure Visibility Wind Dir Wind Speed Gust Speed Precip Events Conditions
12:52 AM 50.0 °F - 30.0 °F 46% 29.81 in 10.0 mi SW 6.9 mph - N/A   Clear
1:52 AM 51.1 °F - 28.9 °F 43% 29.84 in 10.0 mi Calm Calm - N/A   Clear
2:52 AM 48.0 °F - 30.9 °F 52% 29.86 in 10.0 mi West 6.9 mph - N/A   Clear
3:52 AM 51.1 °F - 35.1 °F 54% 29.93 in 10.0 mi NNW 16.1 mph - N/A   Clear
4:52 AM 48.9 °F - 35.1 °F 59% 29.96 in 10.0 mi North 9.2 mph - N/A   Clear
5:52 AM 42.1 °F 37.1 °F 34.0 °F 73% 30.01 in 10.0 mi NNW 8.1 mph - N/A   Clear
6:52 AM 41.0 °F 36.4 °F 34.0 °F 76% 30.05 in 10.0 mi NNW 6.9 mph - N/A   Clear
7:52 AM 44.1 °F 40.1 °F 34.0 °F 68% 30.07 in 10.0 mi North 6.9 mph - N/A   Clear
8:52 AM 46.0 °F - 36.0 °F 68% 30.09 in 10.0 mi Calm Calm - N/A   Clear
9:52 AM 52.0 °F - 34.0 °F 50% 30.11 in 10.0 mi Calm Calm - N/A   Clear
10:52 AM 55.9 °F - 34.0 °F 44% 30.13 in 10.0 mi North 8.1 mph - N/A   Clear
11:52 AM 60.1 °F - 33.1 °F 36% 30.11 in 10.0 mi NW 3.5 mph - N/A   Clear
12:52 PM 63.0 °F - 30.0 °F 29% 30.09 in 10.0 mi Calm Calm - N/A   Clear
1:52 PM 66.0 °F - 19.9 °F 17% 30.05 in 10.0 mi NNE 9.2 mph - N/A   Clear
2:52 PM 66.0 °F - 17.1 °F 15% 30.05 in 10.0 mi ENE 8.1 mph - N/A   Clear
3:52 PM 66.0 °F - 19.0 °F 17% 30.05 in 10.0 mi ENE 3.5 mph - N/A   Clear
4:52 PM 63.0 °F - 23.0 °F 22% 30.05 in 10.0 mi ESE 3.5 mph - N/A   Clear
5:52 PM 59.0 °F - 26.1 °F 28% 30.07 in 10.0 mi ESE 3.5 mph - N/A   Clear
6:52 PM 55.0 °F - 24.1 °F 30% 30.09 in 10.0 mi Calm Calm - N/A   Clear
7:52 PM 48.0 °F - 26.1 °F 42% 30.09 in 10.0 mi SE 6.9 mph - N/A   Clear
8:52 PM 45.0 °F 40.1 °F 28.0 °F 52% 30.08 in 10.0 mi South 9.2 mph - N/A   Clear
9:52 PM 46.0 °F 41.9 °F 28.0 °F 50% 30.06 in 10.0 mi SSE 8.1 mph - N/A   Clear
10:52 PM 45.0 °F 41.2 °F 28.9 °F 53% 30.05 in 10.0 mi South 6.9 mph - N/A   Clear
11:52 PM 44.1 °F 40.8 °F 28.9 °F 55% 30.03 in 10.0 mi South 5.8 mph - N/A   Clear